This demonstration page uses our WeatherBlox Daily Observations layout. Learn more.

Left ArrowRight Arrow

Hourly Observations for February 22, 2021

Temp ( °F °C ) Dew Point ( °F °C ) Humidity (%) Winds ( mph kmh ) Pressure ( in mb ) Visibility ( mi km ) Precip ( " mm )
12:15 am 00:15 undefined 28 -2 21 -6.1 74 74 W 10 17 30.11 1020 10 16 N/A
12:35 am 00:35 undefined 28 -2 21 -6.1 74 74 W 13 20 30.11 1020 10 16 N/A
12:55 am 00:55 undefined 30 -1.2 22 -5.8 71 71 WSW 15 24 30.10 1019 10 16 N/A
1:15 am 01:15 undefined 30 -1.3 22 -5.7 72 72 W 14 22 30.10 1019 10 16 N/A
1:35 am 01:35 undefined 30 -1 22 -5.5 72 72 WSW 17 28 30.08 1019 10 16 N/A
1:55 am 01:55 undefined 30 -1 22 -5.3 73 73 W 18 30 30.08 1019 10 16 N/A
2:15 am 02:15 undefined 29 -1.5 22 -5.5 74 74 W 15 24 30.09 1019 10 16 N/A
2:35 am 02:35 undefined 29 -1.4 22 -5.5 74 74 W 16 26 30.08 1019 10 16 N/A
2:55 am 02:55 undefined 30 -1 22 -5.4 72 72 W 17 28 30.06 1018 10 16 N/A
3:15 am 03:15 undefined 29 -1.5 22 -5.5 74 74 W 15 24 30.07 1018 10 16 N/A
3:35 am 03:35 undefined 30 -1 22 -5.3 73 73 W 17 28 30.06 1018 10 16 N/A
3:55 am 03:55 undefined 30 -1.1 23 -5.2 74 74 W 17 28 30.06 1018 10 16 N/A
4:15 am 04:15 undefined 32 -0.2 23 -5 70 70 W 18 30 30.05 1017 10 16 N/A
4:35 am 04:35 undefined 32 -0.1 23 -5.1 69 69 W 15 24 30.04 1017 10 16 N/A
4:55 am 04:55 undefined 31 -0.5 23 -5.2 71 71 WSW 16 26 30.04 1017 10 16 N/A
5:15 am 05:15 undefined 30 -0.9 22 -5.3 72 72 WSW 15 24 30.04 1017 10 16 N/A
5:35 am 05:35 undefined 31 -0.6 23 -5 72 72 WSW 17 28 30.04 1017 10 16 N/A
5:55 am 05:55 undefined 31 -0.4 23 -5 71 71 WSW 17 28 30.03 1017 10 16 N/A
6:15 am 06:15 undefined 31 -0.5 23 -5 72 72 WSW 16 26 30.03 1017 10 16 N/A
6:35 am 06:35 undefined 31 -0.8 23 -5 74 74 W 15 24 30.03 1017 10 16 N/A
6:55 am 06:55 undefined 31 -0.5 23 -5 72 72 W 15 24 30.03 1017 10 16 N/A
7:15 am 07:15 undefined 31 -0.7 23 -5 73 73 W 14 22 30.03 1017 10 16 N/A
7:35 am 07:35 undefined 31 -0.7 23 -5 73 73 W 14 22 30.03 1017 10 16 N/A
7:55 am 07:55 undefined 31 -0.5 23 -4.8 73 73 W 14 22 30.03 1017 10 16 N/A
8:15 am 08:15 undefined 32 -0.2 24 -4.7 72 72 W 14 22 30.03 1017 10 16 N/A
8:35 am 08:35 undefined 32 undefined 24 -4.5 72 72 W 15 24 30.02 1017 10 16 N/A
8:55 am 08:55 undefined 32 0.1 24 -4.3 73 73 W 16 26 30.03 1017 10 16 N/A
9:15 am 09:15 undefined 34 1.2 25 -3.7 70 70 W 15 24 30.02 1017 10 16 N/A
9:35 am 09:35 undefined 37 2.5 26 -3.3 66 66 W 18 30 30.00 1016 10 16 N/A
9:55 am 09:55 undefined 37 2.8 27 -2.9 66 66 W 17 28 30.00 1016 10 16 N/A
10:15 am 10:15 undefined 38 3.3 27 -2.7 65 65 W 15 24 29.99 1016 10 16 N/A
10:35 am 10:35 undefined 40 4.4 28 -2.5 61 61 W 17 28 29.98 1015 10 16 N/A
10:55 am 10:55 undefined 40 4.7 28 -2 62 62 W 17 28 29.98 1015 10 16 N/A
11:15 am 11:15 undefined 41 5 29 -1.7 62 62 W 15 24 29.98 1015 10 16 N/A
11:35 am 11:35 undefined 42 5.5 29 -1.6 61 61 W 17 28 29.98 1015 10 16 N/A
11:55 am 11:55 undefined 42 5.7 29 -1.6 60 60 W 16 26 29.98 1015 10 16 N/A
12:15 pm 12:15 undefined 43 5.9 29 -1.4 60 60 W 17 28 29.98 1015 10 16 N/A
12:35 pm 12:35 undefined 43 6.3 30 -1.3 59 59 W 16 26 29.97 1015 10 16 N/A
12:55 pm 12:55 undefined 44 6.5 30 -1.1 59 59 W 15 24 29.95 1014 10 16 N/A
1:15 pm 13:15 undefined 44 6.6 30 -1 59 59 W 15 24 29.95 1014 10 16 N/A
1:35 pm 13:35 undefined 45 7 30 -1 57 57 W 15 24 29.95 1014 10 16 N/A
1:55 pm 13:55 undefined 44 6.7 31 -0.6 60 60 W 12 19 29.95 1014 10 16 N/A
2:15 pm 14:15 undefined 44 6.8 31 -0.6 60 60 W 16 26 29.93 1014 10 16 N/A
2:35 pm 14:35 undefined 45 7.1 31 -0.8 58 58 W 17 28 29.92 1013 10 16 N/A
2:55 pm 14:55 undefined 45 7.2 31 -0.7 58 58 W 16 26 29.94 1014 10 16 N/A
3:15 pm 15:15 undefined 46 7.6 31 -0.6 56 56 W 13 20 29.93 1014 10 16 N/A
3:35 pm 15:35 undefined 45 7 31 -0.4 60 60 W 15 24 29.94 1014 10 16 N/A
3:55 pm 15:55 undefined 45 7 32 -0.2 61 61 W 14 22 29.93 1014 10 16 N/A
4:15 pm 16:15 undefined 45 7.3 32 -0.1 60 60 W 10 17 29.95 1014 10 16 N/A
4:35 pm 16:35 undefined 46 7.9 32 -0.1 57 57 W 12 19 29.93 1014 10 16 N/A
4:55 pm 16:55 undefined 46 7.7 31 -0.3 57 57 W 13 20 29.93 1014 10 16 N/A
5:15 pm 17:15 undefined 45 7 31 -0.3 60 60 W 13 20 29.94 1014 10 16 N/A
5:35 pm 17:35 undefined 45 7.3 32 -0.1 60 60 WSW 13 20 29.94 1014 10 16 N/A
5:55 pm 17:55 undefined 45 7.2 32 -0.1 60 60 W 13 20 29.94 1014 10 16 N/A
6:15 pm 18:15 undefined 44 6.6 32 -0.1 63 63 W 15 24 29.94 1014 10 16 N/A
6:35 pm 18:35 undefined 43 6.1 32 -0.2 64 64 W 14 22 29.96 1014 10 16 N/A
6:55 pm 18:55 undefined 43 6.1 32 -0.2 64 64 W 14 22 29.97 1015 10 16 N/A
7:15 pm 19:15 undefined 41 5 32 -0.2 69 69 W 13 20 29.98 1015 10 16 N/A
7:35 pm 19:35 undefined 41 5 32 -0.2 69 69 W 12 19 29.99 1016 10 16 N/A
7:55 pm 19:55 undefined 41 4.9 31 -0.3 69 69 W 12 19 29.99 1016 10 16 N/A
8:15 pm 20:15 undefined 41 4.9 31 -0.3 69 69 W 9 15 29.99 1016 10 16 N/A
8:35 pm 20:35 undefined 40 4.7 32 -0.2 71 71 W 10 17 29.99 1016 10 16 N/A
8:55 pm 20:55 undefined 39 4 31 -0.5 73 73 W 12 19 30.01 1016 10 16 N/A
9:15 pm 21:15 undefined 39 4 31 -0.5 73 73 W 9 15 30.02 1016 10 16 N/A
9:35 pm 21:35 undefined 39 4 31 -0.5 73 73 W 9 15 30.03 1017 10 16 N/A
9:55 pm 21:55 undefined 37 3 31 -0.7 77 77 W 8 13 30.05 1017 10 16 N/A
10:15 pm 22:15 undefined 38 3.5 31 -0.6 75 75 W 9 15 30.04 1017 10 16 N/A
10:35 pm 22:35 undefined 37 2.9 30 -1 76 76 W 10 17 30.05 1018 10 16 N/A
10:55 pm 22:55 undefined 37 3 30 -1 75 75 W 8 13 30.06 1018 10 16 N/A
11:15 pm 23:15 undefined 38 3.6 30 -0.9 73 73 WNW 8 13 30.04 1017 10 16 N/A
11:35 pm 23:35 undefined 34 1.2 29 -1.6 82 82 W 7 11 30.06 1018 10 16 N/A
11:55 pm 23:55 undefined 36 2.3 30 -1.3 77 77 W 9 15 30.06 1018 10 16 N/A

Powered by AerisWeather